Laramie, WY

2:34 AM MST on December 14, 2017 (GMT -0700)
Laramie Regional

Weather History for KLAR - January, 2015

Change the Weather History Date:

Monday, January 5, 2015

  Actual Average Record
Temperature  
Mean Temperature 33 °F 22 °F  
Max Temperature 39 °F 33 °F 55 °F (1956)
Min Temperature 27 °F 10 °F -35 °F (2017)
Degree Days  
Heating Degree Days 32 43  
Month to date heating degree days 259 216  
Since 1 July heating degree days 3700 3889  
Cooling Degree Days 0 0  
Month to date cooling degree days 0 0  
Year to date cooling degree days 0 0  
Moisture  
Dew Point 25 °F    
Average Humidity 66    
Maximum Humidity 78    
Minimum Humidity 53    
Precipitation  
Precipitation 0.00 in 0.01 in 0.08 in (1974)
Month to date precipitation T 0.04  
Year to date precipitation T 0.04  
Sea Level Pressure  
Sea Level Pressure 30.10 in    
Wind  
Wind Speed 29 mph (WSW)    
Max Wind Speed 52 mph    
Max Gust Speed 63 mph    
Visibility 8 miles    
Events      
T = Trace of Precipitation, MM = Missing Value Source: NWS Daily Summary

Daily Weather History Graph

Daily Weather History Graph

Search for Another Location

Airport or City:

Trip Planner

Search our weather history database for the weather conditions in past years. The results will help you decide how hot, cold, wet, or windy it might be!

Date:

Astronomy

Jan. 05, 2015 Rise Set
Actual Time 7:28 AM MST 4:47 PM MST
Civil Twilight 6:57 AM MST 5:18 PM MST
Nautical Twilight 6:23 AM MST 5:53 PM MST
Astronomical Twilight 5:49 AM MST 6:26 PM MST
Moon 5:45 PM MST (1/5) 7:26 AM MST (1/5)
Length of Visible Light 10h 21m
Length of Day
9h 18m
Full, 100% of the Moon is Illuminated
Jan 5
Full
Jan 13
Last Quarter
Jan 20
New
Jan 26
First Quarter
Feb 3
Full

Hourly Weather History & Observations

Time (MST) Temp. Windchill Dew Point Humidity Pressure Visibility Wind Dir Wind Speed Gust Speed Precip Events Conditions
12:53 AM 28.0 °F 12.8 °F 16.0 °F 61% 30.20 in 10.0 mi WSW 27.6 mph - N/A   Clear
1:53 AM 30.0 °F 16.9 °F 16.0 °F 56% 30.20 in 10.0 mi WSW 21.9 mph - N/A   Clear
2:53 AM 28.9 °F 14.5 °F 17.1 °F 61% 30.16 in 10.0 mi SW 25.3 mph 32.2 mph N/A   Clear
3:53 AM 30.0 °F 16.6 °F 18.0 °F 61% 30.14 in 10.0 mi SW 23.0 mph 33.4 mph N/A   Clear
4:53 AM 30.9 °F 18.4 °F 19.0 °F 61% 30.14 in 10.0 mi WSW 20.7 mph - N/A   Mostly Cloudy
5:53 AM 30.0 °F 14.7 °F 21.0 °F 69% 30.10 in 4.0 mi WSW 31.1 mph 49.5 mph 0.00 in   Scattered Clouds
6:36 AM 30.0 °F 13.0 °F 23.0 °F 75% 30.02 in 2.0 mi SW 40.3 mph 50.6 mph 0.00 in   Clear
6:53 AM 30.9 °F 14.5 °F 23.0 °F 72% 30.06 in 3.0 mi WSW 39.1 mph 47.2 mph 0.00 in   Mostly Cloudy
7:10 AM 30.9 °F 14.1 °F 24.1 °F 76% 30.01 in 2.0 mi WSW 41.4 mph 54.1 mph 0.00 in   Overcast
7:18 AM 30.9 °F 13.9 °F 24.1 °F 76% 30.00 in 1.8 mi WSW 42.6 mph 54.1 mph 0.00 in   Mostly Cloudy
7:53 AM 30.9 °F 14.3 °F 24.1 °F 76% 30.05 in 1.8 mi WSW 40.3 mph 49.5 mph 0.00 in   Overcast
7:58 AM 32.0 °F 17.0 °F 24.1 °F 73% 30.04 in 3.0 mi WSW 33.4 mph 48.3 mph 0.00 in   Overcast
8:53 AM 32.0 °F 18.1 °F 25.0 °F 75% 30.08 in 10.0 mi SW 27.6 mph - 0.00 in   Overcast
9:53 AM 34.0 °F 20.3 °F 27.0 °F 75% 30.04 in 10.0 mi SW 29.9 mph 39.1 mph N/A   Mostly Cloudy
10:53 AM 36.0 °F 22.8 °F 28.0 °F 73% 30.06 in 10.0 mi WSW 31.1 mph 41.4 mph N/A   Clear
11:53 AM 37.0 °F 23.3 °F 28.0 °F 70% 30.02 in 10.0 mi WSW 36.8 mph 46.0 mph N/A   Clear
12:53 PM 37.9 °F 22.9 °F 28.0 °F 68% 29.99 in 10.0 mi West 49.5 mph 61.0 mph N/A   Clear
1:53 PM 37.9 °F 24.2 °F 28.0 °F 68% 30.02 in 10.0 mi WSW 39.1 mph 49.5 mph N/A   Clear
2:53 PM 39.0 °F 27.8 °F 28.9 °F 67% 30.06 in 10.0 mi West 26.5 mph 40.3 mph N/A   Clear
3:53 PM 39.0 °F 27.2 °F 28.9 °F 67% 30.07 in 10.0 mi West 29.9 mph 39.1 mph N/A   Clear
4:53 PM 37.9 °F 25.7 °F 28.9 °F 70% 30.09 in 10.0 mi WSW 29.9 mph 39.1 mph N/A   Clear
5:53 PM 37.0 °F 25.6 °F 28.9 °F 73% 30.14 in 10.0 mi West 24.2 mph 36.8 mph N/A   Clear
6:53 PM 37.9 °F 24.9 °F 28.9 °F 70% 30.13 in 10.0 mi West 34.5 mph 41.4 mph N/A   Clear
7:53 PM 37.9 °F 26.8 °F 28.9 °F 70% 30.15 in 10.0 mi WSW 24.2 mph 31.1 mph N/A   Clear
8:53 PM 37.9 °F 27.9 °F 28.9 °F 70% 30.19 in 10.0 mi SW 19.6 mph 33.4 mph N/A   Clear
9:53 PM 37.9 °F 27.3 °F 28.0 °F 68% 30.19 in 10.0 mi WSW 21.9 mph - N/A   Clear
10:53 PM 37.9 °F 26.8 °F 28.0 °F 68% 30.18 in 10.0 mi West 24.2 mph - N/A   Clear
11:53 PM 36.0 °F 27.1 °F 28.0 °F 73% 30.23 in 10.0 mi SSW 13.8 mph - N/A   Clear